| time (UTC) | temp F | wind direction | speed MPH | gust MPH | rain 1hr in | rain 24hr in | rain mn in | humidity % | barometer mb |
| 20260505111552 | 41 | 0 | 0.0 | 2.0 | 0.00 | 0.00 | 0.00 | 50 | 1018.9 |
| 20260505101555 | 40 | 0 | 0.0 | 0.0 | 0.00 | 0.00 | 0.00 | 53 | 1018.4 |
| 20260505100055 | 40 | 0 | 0.0 | 1.0 | 0.00 | 0.00 | 0.00 | 53 | 1018.3 |
| 20260505094557 | 39 | 0 | 0.0 | 2.0 | 0.00 | 0.00 | 0.00 | 52 | 1018.3 |
| 20260505093100 | 39 | 0 | 0.0 | 0.0 | 0.00 | 0.00 | 0.00 | 53 | 1018.1 |
| 20260505091603 | 40 | 0 | 0.0 | 0.0 | 0.00 | 0.00 | 0.00 | 54 | 1018.1 |
| 20260505090054 | 40 | 0 | 0.0 | 1.0 | 0.00 | 0.00 | 0.00 | 53 | 1018.0 |
| 20260505084554 | 39 | 0 | 0.0 | 1.0 | 0.00 | 0.00 | 0.00 | 53 | 1018.3 |
| 20260505083058 | 40 | 0 | 0.0 | 1.0 | 0.00 | 0.00 | 0.00 | 52 | 1018.3 |
| 20260505081604 | 40 | 0 | 0.0 | 3.0 | 0.00 | 0.00 | 0.00 | 50 | 1018.2 |
| 20260505080053 | 39 | 0 | 0.0 | 1.0 | 0.00 | 0.00 | 0.00 | 52 | 1018.2 |
| 20260505074549 | 39 | 250 | 1.0 | 2.0 | 0.00 | 0.00 | 0.00 | 51 | 1018.0 |
| 20260505073106 | 39 | 0 | 0.0 | 1.0 | 0.00 | 0.00 | 0.00 | 51 | 1018.1 |
| 20260505071559 | 40 | 35 | 0.0 | 2.0 | 0.00 | 0.00 | 0.00 | 49 | 1018.0 |
| 20260505070101 | 40 | 0 | 0.0 | 1.0 | 0.00 | 0.00 | 0.00 | 49 | 1018.2 |
| 20260505064552 | 40 | 0 | 0.0 | 2.0 | 0.00 | 0.00 | 0.00 | 49 | 1018.1 |
| 20260505063056 | 40 | 0 | 0.0 | 3.0 | 0.00 | 0.00 | 0.00 | 49 | 1017.9 |
| 20260505061554 | 41 | 0 | 0.0 | 1.0 | 0.00 | 0.00 | 0.00 | 48 | 1017.8 |
| 20260505060059 | 41 | 0 | 0.0 | 2.0 | 0.00 | 0.00 | 0.00 | 47 | 1017.8 |
| 20260505054558 | 41 | 0 | 0.0 | 2.0 | 0.00 | 0.00 | 0.00 | 46 | 1017.8 |
| 20260505053056 | 41 | 118 | 0.0 | 2.0 | 0.00 | 0.00 | 0.00 | 46 | 1017.6 |
| 20260505051605 | 42 | 82 | 2.0 | 7.0 | 0.00 | 0.00 | 0.00 | 45 | 1017.5 |
| 20260505050105 | 42 | 60 | 3.0 | 10.0 | 0.00 | 0.00 | 0.00 | 44 | 1017.5 |
| 20260505041557 | 44 | 41 | 2.0 | 11.0 | 0.00 | 0.00 | 0.00 | 41 | 1017.1 |
| 20260505040054 | 45 | 65 | 6.0 | 10.0 | 0.00 | 0.00 | 0.00 | 40 | 1017.0 |
| 20260505034554 | 45 | 22 | 3.0 | 9.0 | 0.00 | 0.00 | 0.00 | 40 | 1017.0 |
| 20260505033053 | 46 | 291 | 6.0 | 12.0 | 0.00 | 0.00 | 0.00 | 39 | 1016.8 |
| 20260505031555 | 46 | 63 | 5.0 | 12.0 | 0.00 | 0.00 | 0.00 | 37 | 1016.5 |
| 20260505030058 | 48 | 32 | 5.0 | 10.0 | 0.00 | 0.00 | 0.00 | 34 | 1016.2 |
| 20260505024600 | 49 | 40 | 6.0 | 13.0 | 0.00 | 0.00 | 0.00 | 32 | 1016.0 |
| 20260505023054 | 51 | 23 | 6.0 | 12.0 | 0.00 | 0.00 | 0.00 | 27 | 1015.7 |
| 20260505021551 | 52 | 58 | 6.0 | 13.0 | 0.00 | 0.00 | 0.00 | 24 | 1015.4 |
| 20260505020054 | 54 | 342 | 5.0 | 16.0 | 0.00 | 0.00 | 0.00 | 22 | 1015.2 |
| 20260505014557 | 55 | 342 | 5.0 | 15.0 | 0.00 | 0.00 | 0.00 | 20 | 1015.1 |
| 20260505013102 | 55 | 319 | 11.0 | 17.0 | 0.00 | 0.00 | 0.00 | 20 | 1014.8 |
| 20260505011556 | 56 | 316 | 8.0 | 20.0 | 0.00 | 0.00 | 0.00 | 20 | 1014.7 |
| 20260505010115 | 56 | 312 | 11.0 | 19.0 | 0.00 | 0.00 | 0.00 | 20 | 1014.7 |
| 20260505004552 | 56 | 308 | 10.0 | 21.0 | 0.00 | 0.00 | 0.00 | 20 | 1014.8 |
| 20260505003053 | 57 | 321 | 14.0 | 23.0 | 0.00 | 0.00 | 0.00 | 21 | 1014.9 |
| 20260505001552 | 56 | 341 | 12.0 | 23.0 | 0.00 | 0.00 | 0.00 | 21 | 1014.8 |
| 20260505000100 | 56 | 321 | 14.0 | 22.0 | 0.00 | 0.00 | 0.00 | 21 | 1014.8 |
| 20260504234554 | 57 | 302 | 12.0 | 22.0 | 0.00 | 0.00 | 0.00 | 22 | 1014.9 |
| 20260504233101 | 57 | 331 | 12.0 | 22.0 | 0.00 | 0.00 | 0.00 | 23 | 1014.8 |
| 20260504231552 | 57 | 297 | 11.0 | 22.0 | 0.00 | 0.00 | 0.00 | 25 | 1014.6 |
| 20260504230100 | 55 | 317 | 16.0 | 24.0 | 0.00 | 0.00 | 0.00 | 26 | 1015.0 |
| 20260504224552 | 55 | 322 | 9.0 | 17.0 | 0.00 | 0.00 | 0.00 | 28 | 1015.0 |
| 20260504223102 | 55 | 297 | 9.0 | 20.0 | 0.00 | 0.00 | 0.00 | 29 | 1015.0 |
| 20260504221558 | 55 | 319 | 10.0 | 20.0 | 0.00 | 0.00 | 0.00 | 28 | 1015.0 |
| 20260504214615 | 55 | 325 | 11.0 | 20.0 | 0.00 | 0.00 | 0.00 | 29 | 1014.9 |
| 20260504213121 | 55 | 352 | 13.0 | 21.0 | 0.00 | 0.00 | 0.00 | 28 | 1014.9 |
| 20260504211601 | 56 | 315 | 14.0 | 23.0 | 0.00 | 0.00 | 0.00 | 29 | 1014.9 |
| 20260504204555 | 56 | 324 | 12.0 | 19.0 | 0.00 | 0.00 | 0.00 | 28 | 1014.9 |
| 20260504203105 | 57 | 352 | 12.0 | 24.0 | 0.00 | 0.00 | 0.00 | 29 | 1014.8 |
| 20260504201613 | 57 | 320 | 14.0 | 21.0 | 0.00 | 0.00 | 0.00 | 29 | 1014.8 |
| 20260504200111 | 57 | 345 | 12.0 | 19.0 | 0.00 | 0.00 | 0.00 | 31 | 1014.8 |
| 20260504194602 | 57 | 301 | 16.0 | 23.0 | 0.00 | 0.00 | 0.00 | 30 | 1014.9 |
| 20260504193051 | 57 | 292 | 12.0 | 20.0 | 0.00 | 0.00 | 0.00 | 29 | 1014.9 |
| 20260504191608 | 58 | 311 | 13.0 | 21.0 | 0.00 | 0.00 | 0.00 | 29 | 1014.9 |
| 20260504190114 | 57 | 308 | 15.0 | 22.0 | 0.00 | 0.00 | 0.00 | 29 | 1015.0 |
| 20260504184622 | 57 | 317 | 11.0 | 22.0 | 0.00 | 0.00 | 0.00 | 32 | 1015.1 |
| 20260504183056 | 56 | 297 | 10.0 | 18.0 | 0.00 | 0.00 | 0.00 | 31 | 1015.1 |
| 20260504181600 | 57 | 315 | 9.0 | 20.0 | 0.00 | 0.00 | 0.00 | 34 | 1015.2 |
| 20260504180056 | 56 | 288 | 12.0 | 18.0 | 0.00 | 0.00 | 0.00 | 33 | 1015.2 |
| 20260504174554 | 55 | 306 | 12.0 | 22.0 | 0.00 | 0.00 | 0.00 | 34 | 1015.3 |
| 20260504173055 | 56 | 300 | 14.0 | 20.0 | 0.00 | 0.00 | 0.00 | 34 | 1015.2 |
| 20260504171605 | 55 | 314 | 13.0 | 19.0 | 0.00 | 0.00 | 0.00 | 37 | 1015.2 |
| 20260504140110 | 48 | 274 | 5.0 | 8.0 | 0.00 | 0.00 | 0.00 | 60 | 1015.8 |
| 20260504120109 | 46 | 274 | 4.0 | 6.0 | 0.00 | 0.00 | 0.00 | 61 | 1015.8 |